Regional Weather Roundup
Issued by NWS

Home | Current Version | Previous Version | Graphics & Text | Print | Product List | Glossary On
Versions: 1 2 3 4 5 6 7 8 9 10 11 12 13 14 15 16 17 18 19 20 21 22 23 24 25 26 27 28 29 30 31 32 33 34 35 36 37 38 39 40 41 42 43 44 45 46 47 48 49 50
907
ASUS45 KTFX 250010
RWRMT
MONTANA REGIONAL WEATHER ROUNDUP
NATIONAL WEATHER SERVICE GREAT FALLS MT
500 PM MST FRI NOV 24 2017

NOTE: "FAIR" INDICATES FEW OR NO CLOUDS BELOW 12000 FEET WITH NO
SIGNIFICANT WEATHER AND/OR OBSTRUCTIONS TO VISIBILITY.

MTZ001>007-043-250100-
WEST OF THE DIVIDE

CITY           SKY/WX    TMP DP  RH WIND       PRES   REMARKS
KALISPELL      MOCLDY    41  27  57 SW13      30.04R
MISSOULA       MOCLDY    41  26  55 NW6       30.08S
BUTTE          FAIR      39  14  36 W6        30.03R
MULLAN PASS    LGT SNOW  27  24  89 VRB3      30.01  FOG
ANACONDA         N/A     37  19  48 SW7       30.03S
DEER LODGE       N/A     37  25  60 CALM      30.05R
EUREKA           N/A     43  27  52 MISG      30.03R
HAMILTON         N/A     43  23  45 CALM      30.06F
LIBBY            N/A     43  25  49 CALM      30.04S
PLAINS           N/A     43  31  63 S9        30.07
$$

MTZ008-052>055-250100-
SOUTHWEST MONTANA

CITY           SKY/WX    TMP DP  RH WIND       PRES   REMARKS
BOZEMAN        FAIR      41  17  38 NW8       30.00R
DILLON         FAIR      39  17  41 SW5       30.01R
W YELLOWSTONE  FAIR      36  34  93 S8        30.05R WCI  29
ENNIS          CLOUDY    43  23  45 CALM      30.06R
TWIN BRIDGES     N/A     43  10  26 CALM      30.01
$$

MTZ009-010-012-014-046-048-049-054-250100-
EAST SLOPES AND CENTRAL MONTANA

CITY           SKY/WX    TMP DP  RH WIND       PRES   REMARKS
CUT BANK       FAIR      37  23  56 SW15      29.90R WCI  28
GREAT FALLS    FAIR      41  21  44 SW16      29.93R
MALMSTROM AFB  FAIR      42  22  45 SW18      29.94R
HELENA         FAIR      43  24  47 SW12      30.01S
BOWMANS CRNR   MOCLDY    37  22  55 SW17      29.94R WCI  27
CHOTEAU          N/A     39  19  45 W6        29.93R
FAIRFIELD      FAIR      40  20  45 SW15      29.92R
POWER          FAIR      38  22  53 SW10      29.93R WCI  31
RAYNESFORD     MOCLDY    42  19  39 W18G26    29.94R
ULM            MOCLDY    42  21  43 W24G32    29.95R
$$

MTZ011-013-016-021-045-047-050-051-250100-
NORTH CENTRAL MONTANA

CITY           SKY/WX    TMP DP  RH WIND       PRES   REMARKS
HAVRE          FAIR      41  27  57 W14       29.87R
LEWISTOWN      FAIR      40  20  44 NW10      29.93R
N BAR RANCH    FAIR      37  18  44 W8        29.95R WCI  31
CHINOOK          N/A     45  27  49 SW8       29.87R
DENTON         FAIR      42  21  43 W21       29.90R
GEYSER         FAIR      41  20  43 W25G35    29.90R
GRASS RANGE    FAIR      42  20  40 W7        29.90R
STANFORD       FAIR      38  19  46 W9        29.93R
WINIFRED       FAIR      41  21  44 W14       29.91R
$$

MTZ017>020-022>027-061-062-250100-
NORTHEAST MONTANA

CITY           SKY/WX    TMP DP  RH WIND       PRES   REMARKS
GLASGOW        FAIR      40  26  57 W8        29.84R
GLENDIVE       FAIR      37  25  61 W8        29.88R WCI  31
JORDAN           N/A     37  25  61 W5        29.89R
SIDNEY         FAIR      43  29  57 W10       29.83R
WOLF POINT     FAIR      40  28  62 W7        29.84R
MALTA          CLEAR     43  27  52 W8G20     29.86R
PLENTYWOOD       N/A     41  32  70 CALM      29.78R
POPLAR           N/A     39  28  65 W6        29.84R
SCOBEY           N/A     39  24  55 MISG      29.80
$$

MTZ028>42-056>058-250100-
SOUTHCENTRAL AND SOUTHEAST MONTANA

CITY           SKY/WX    TMP DP  RH WIND       PRES   REMARKS
BAKER          FAIR      38  29  70 W9        29.88R WCI  31
BILLINGS       FAIR      46  22  38 CALM      29.92R
LIVINGSTON     FAIR      46  21  37 W25       29.94R
MILES CITY     FAIR      42  24  49 N8        29.91R
BIG TIMBER     CLEAR     45  16  31 W21G30    29.93R
EKALAKA          N/A     39  24  55 SW3       29.89R
FORSYTH          N/A     48  21  34 CALM      29.92R
HARLOWTON      FAIR      39  21  48 NW10      29.94R
LAUREL           N/A     45  21  39 CALM      29.94R
ROUNDUP          N/A     43  15  32 NW6       29.85R
$$

REGIONAL REPORTS...DAKOTAS

CITY           SKY/WX    TMP DP  RH WIND       PRES   REMARKS
WILLISTON      FAIR      45  32  60 W16       29.79R
MINOT          FAIR      42  31  64 W15       29.74R
DICKINSON      FAIR      36  27  69 W10       29.82R WCI  28
BEACH          FAIR      41  28  60 W12       29.90R
CROSBY         FAIR      32  30  93 NW8       29.77S WCI  25
TIOGA          FAIR      37  30  75 NW6       29.79R
WATFORD CITY   FAIR      43  32  65 W12       29.79R
BISMARCK       FAIR      48  32  53 W10       29.80R
GRAND FORKS    FAIR      40  34  79 NW12      29.62R
FARGO          FAIR      39  33  79 W10       29.64R
BUFFALO SD       N/A     42  30  62 NW9       29.83R
RAPID CITY     FAIR      40  25  55 N12       29.89S
$$

REGIONAL REPORTS...WYOMING/IDAHO/WASHINGTON

CITY           SKY/WX    TMP DP  RH WIND       PRES   REMARKS
GILLETTE       FAIR      35  22  58 W7        29.92R WCI  29
SHERIDAN       FAIR      33  24  69 SW5       29.93R
BUFFALO WY     FAIR      38  15  39 CALM      29.94R
CODY           FAIR      51  21  30 W12G29    29.92R
YELLOWSTONE LA   N/A     34  27  75 VRB3      30.09R
IDAHO FALLS    FAIR      44  39  82 S14       30.08R
SALMON         FAIR      43  26  51 CALM      30.04S
BOISE          FAIR      50  29  44 NE3       30.11R
SPOKANE        MOCLDY    44  35  70 S8        30.07R
$$

REGIONAL REPORTS...ALBERTA

CITY           SKY/WX    TMP DP  RH WIND       PRES   REMARKS
EDMONTON       CLEAR     34  25  69 S6        29.71R WCI  29
CALGARY        MOCLDY    43  19  39 W6        29.76R
LETHBRIDGE     MOCLDY    41  27  56 SW8       29.84R
MEDICINE HAT   PTCLDY    36  30  80 W9        29.82R WCI  29
$$

REGIONAL REPORTS...SASKATCHEWAN

CITY           SKY/WX    TMP DP  RH WIND       PRES   REMARKS
SWIFT CURRENT  CLEAR     34  28  80 W10       29.77R WCI  26
REGINA         MOCLDY    32  30  93 SW7       29.76R WCI  26
SASKATOON      MOCLDY    23  19  86 NE6       29.76R WCI  16
$$




USA.gov is the U.S. government's official web portal to all federal, state and local government web resources and services.